www.pogodaiklimat.ru

Погода и климат >> Архив погоды >> Австралия >> Северная территория >> Остров Центр


ПОГОДА на Острове Центр

  • Прогноз погоды на Острове Центр
  • Монитор погоды на Острове Центр

АРХИВ ПОГОДЫ на Острове Центр

Время (UTC), дата Ветер
(напр.,м/с)
 
Видим.   Явления Облачность Т
(С)
Тd
(С)
f
(%)
Тe
(С)
Тes
(С)
Комфортность P
(гПа)
Po
(гПа)
Тmin
(С)
Tmax
(С)
R
(мм)
R24
(мм)
S
(см)
08 12.03 СВ 7 н/о н/о +32.1 +23.9 62 +44 +44 опасность
перегрева
1007.7 1006.3
09 12.03 С 6 н/о н/о +31.1 +23.7 65 +42 +42 опасность
перегрева
1008.3 1006.9
11 12.03 С 6 н/о н/о +30.4 +24.3 70 +42 +42 опасность
перегрева
1009.5 1008.1
12 12.03 С 5 н/о н/о +30.2 +24.8 73 +43 +43 опасность
перегрева
1009.7 1008.3
14 12.03 С 6 н/о н/о +29.9 +25.0 75 +43 +43 опасность
перегрева
1009.9 1008.5 +34.7
15 12.03 С 6 н/о н/о +29.8 +25.1 76 +43 +43 опасность
перегрева
1009.2 1007.8
17 12.03 С 3 н/о н/о +29.0 +24.8 78 +41 +41 опасность
перегрева
1008.4 1007.0
18 12.03 С 4 н/о н/о +29.0 +25.2 80 +42 +42 опасность
перегрева
1008.1 1006.7
20 12.03 СЗ 2 н/о н/о +28.2 +25.2 84 +41 +41 опасность
перегрева
1009.2 1007.8
21 12.03 СЗ 3 н/о н/о +28.2 +24.8 82 +40 +40 очень
душно
1009.4 1008.0
23 12.03 Ю 6 н/о н/о +30.3 +25.8 77 +45 +45 опасность
перегрева
1011.2 1009.8
00 13.03 Ю 4 н/о н/о +31.1 +25.0 70 +45 +45 опасность
перегрева
1011.2 1009.8
02 13.03 ЮВ 3 н/о н/о +32.2 +24.8 65 +45 +45 опасность
перегрева
1010.2 1008.8 +28.0
03 13.03 СВ 4 н/о н/о +32.6 +25.2 65 +47 +47 опасность
перегрева
1009.4 1008.0
05 13.03 С 4 н/о н/о +34.4 +22.1 49 +43 +43 опасность
перегрева
1008.3 1006.9
06 13.03 С 4 н/о н/о +34.2 +22.9 52 +44 +44 опасность
перегрева
1008.3 1006.9
08 13.03 С 4 н/о н/о +32.6 +23.3 58 +43 +43 опасность
перегрева
1007.6 1006.2
09 13.03 С 5 н/о н/о +30.8 +23.5 65 +42 +42 опасность
перегрева
1007.6 1006.2
11 13.03 С 3 н/о н/о +30.0 +23.7 69 +41 +41 опасность
перегрева
1009.8 1008.4
12 13.03 С 3 н/о н/о +30.0 +23.7 69 +41 +41 опасность
перегрева
1010.6 1009.2
14 13.03 С 4 н/о н/о +29.9 +24.1 71 +41 +41 опасность
перегрева
1009.7 1008.3 +35.6
15 13.03 С 4 н/о н/о +29.7 +24.1 72 +41 +41 опасность
перегрева
1009.9 1008.5
17 13.03 СВ 3 н/о н/о +29.6 +24.5 74 +42 +42 опасность
перегрева
1010.1 1008.7
18 13.03 В 3 н/о н/о +29.5 +24.4 74 +41 +41 опасность
перегрева
1010.2 1008.8
20 13.03 СЗ 3 н/о н/о +29.1 +24.2 75 +41 +41 опасность
перегрева
1009.3 1007.9
21 13.03 З 2 н/о н/о +28.7 +24.9 80 +41 +41 опасность
перегрева
1010.0 1008.6
23 13.03 С 3 н/о н/о +31.3 +24.7 68 +44 +44 опасность
перегрева
1011.0 1009.6
00 14.03 СВ 3 н/о н/о +32.7 +25.2 65 +47 +47 опасность
перегрева
1011.4 1010.0
02 14.03 С 3 н/о н/о +33.7 +24.3 58 +46 +46 опасность
перегрева
1010.4 1009.0 +28.7
03 14.03 ЮВ 3 н/о н/о +33.3 +24.5 60 +46 +46 опасность
перегрева
1009.3 1007.9
05 14.03 СВ 4 н/о н/о +34.2 +24.5 57 +47 +47 опасность
перегрева
1007.2 1005.8
06 14.03 С 5 н/о н/о +34.4 +24.6 57 +47 +47 опасность
перегрева
1006.6 1005.2
08 14.03 С 6 н/о н/о +32.3 +24.6 64 +45 +45 опасность
перегрева
1006.5 1005.1
09 14.03 С 5 н/о н/о +30.9 +24.1 67 +43 +43 опасность
перегрева
1007.3 1005.9
11 14.03 С 7 н/о н/о +30.8 +25.6 74 +45 +45 опасность
перегрева
1008.0 1006.6
12 14.03 С 6 н/о н/о +30.6 +25.0 72 +44 +44 опасность
перегрева
1008.5 1007.1
14 14.03 С 4 н/о н/о +30.2 +24.6 72 +43 +43 опасность
перегрева
1009.0 1007.6 +35.3
15 14.03 С 5 н/о н/о +30.1 +24.5 72 +42 +42 опасность
перегрева
1008.2 1006.8
17 14.03 С 3 н/о н/о +29.3 +24.8 77 +42 +42 опасность
перегрева
1007.4 1006.0
18 14.03 С 3 н/о н/о +29.0 +24.6 77 +41 +41 опасность
перегрева
1007.4 1006.0
20 14.03 СЗ 3 н/о н/о +28.4 +24.6 80 +40 +40 очень
душно
1007.9 1006.5
21 14.03 СЗ 3 н/о н/о +28.4 +24.4 79 +40 +40 очень
душно
1008.4 1007.0
23 14.03 СЗ 3 н/о н/о +31.4 +24.3 66 +44 +44 опасность
перегрева
1009.5 1008.1
00 15.03 ЮЗ 3 н/о н/о +32.0 +25.3 68 +46 +46 опасность
перегрева
1009.8 1008.4
02 15.03 Ю 3 н/о н/о +32.7 +25.0 64 +46 +46 опасность
перегрева
1009.8 1008.4 +28.4
03 15.03 ЮВ 3 н/о н/о +33.1 +25.1 63 +47 +47 опасность
перегрева
1009.0 1007.6
05 15.03 СВ 4 н/о н/о +33.6 +24.5 59 +46 +46 опасность
перегрева
1007.6 1006.2
06 15.03 В 10 н/о н/о +32.0 +24.6 65 +45 +45 опасность
перегрева
1007.3 1005.9
08 15.03 В 3 н/о н/о +30.9 +24.5 69 +44 +44 опасность
перегрева
1006.6 1005.2
09 15.03 СВ 5 н/о н/о +30.5 +24.2 69 +42 +42 опасность
перегрева
1006.9 1005.5
11 15.03 С 3 н/о н/о +29.7 +25.0 76 +43 +43 опасность
перегрева
1008.9 1007.5
12 15.03 СВ 3 н/о н/о +29.9 +25.2 76 +43 +43 опасность
перегрева
1009.7 1008.3
14 15.03 С 4 н/о н/о +29.9 +25.6 78 +44 +44 опасность
перегрева
1008.7 1007.3 +35.4
15 15.03 С 3 н/о н/о +29.7 +25.2 77 +43 +43 опасность
перегрева
1008.1 1006.7
17 15.03 СЗ 3 н/о н/о +28.7 +24.9 80 +41 +41 опасность
перегрева
1006.8 1005.4
18 15.03 С 3 н/о н/о +28.8 +24.8 79 +41 +41 опасность
перегрева
1006.7 1005.3
20 15.03 СЗ 3 н/о н/о +28.5 +24.7 80 +41 +41 опасность
перегрева
1007.3 1005.9
21 15.03 З 3 н/о н/о +28.3 +24.5 80 +40 +40 очень
душно
1008.2 1006.8
23 15.03 Ю 3 н/о н/о +28.9 +25.5 82 +43 +43 опасность
перегрева
1009.9 1008.5
00 16.03 ЮВ 2 н/о н/о +30.4 +25.2 74 +44 +44 опасность
перегрева
1010.0 1008.6
02 16.03 СВ 4 н/о н/о +30.6 +23.3 65 +41 +41 опасность
перегрева
1009.5 1008.1 +28.2
03 16.03 СЗ 3 н/о н/о +31.1 +24.0 66 +43 +43 опасность
перегрева
1008.5 1007.1
05 16.03 СВ 3 н/о н/о +32.8 +24.0 60 +45 +45 опасность
перегрева
1006.9 1005.5
06 16.03 СВ 4 н/о н/о +32.3 +24.3 63 +45 +45 опасность
перегрева
1006.4 1005.0
08 16.03 С 4 н/о н/о +31.5 +24.6 67 +44 +44 опасность
перегрева
1006.4 1005.0
09 16.03 С 5 н/о н/о +30.8 +23.7 66 +42 +42 опасность
перегрева
1007.0 1005.6
11 16.03 С 5 н/о н/о +30.6 +24.3 69 +43 +43 опасность
перегрева
1008.7 1007.3
12 16.03 С 5 н/о н/о +30.4 +24.1 69 +42 +42 опасность
перегрева
1009.2 1007.8
14 16.03 С 5 н/о н/о +30.3 +24.9 73 +43 +43 опасность
перегрева
1009.2 1007.8 +33.7
15 16.03 С 4 н/о н/о +30.0 +24.9 74 +43 +43 опасность
перегрева
1008.9 1007.5
17 16.03 СЗ 2 н/о н/о +29.2 +25.2 79 +42 +42 опасность
перегрева
1008.2 1006.8
18 16.03 СЗ 3 н/о н/о +28.9 +25.1 80 +42 +42 опасность
перегрева
1007.8 1006.4
20 16.03 СЗ 2 н/о н/о +28.9 +25.1 80 +42 +42 опасность
перегрева
1008.3 1006.9
21 16.03 штиль 0 н/о н/о +28.3 +24.9 82 +41 +41 опасность
перегрева
1009.1 1007.7
23 16.03 СЗ 2 н/о в посл. час дождь {туман} н/о +29.9 +25.4 77 +44 +44 опасность
перегрева
1010.2 1008.8 0.4
00 17.03 ЮВ 3 н/о н/о +31.0 +25.8 74 +46 +46 опасность
перегрева
1010.4 1009.0
02 17.03 В 3 н/о н/о +32.6 +22.7 56 +42 +42 опасность
перегрева
1009.6 1008.2 +28.2
03 17.03 СВ 3 н/о н/о +33.0 +21.8 52 +41 +41 опасность
перегрева
1009.0 1007.6
05 17.03 С 4 н/о н/о +33.6 +22.7 53 +43 +43 опасность
перегрева
1007.6 1006.2
06 17.03 С 4 н/о н/о +34.0 +24.3 57 +46 +46 опасность
перегрева
1007.2 1005.8
08 17.03 СВ 5 н/о н/о +31.5 +24.6 67 +44 +44 опасность
перегрева
1006.8 1005.4
09 17.03 С 5 н/о н/о +30.6 +24.3 69 +43 +43 опасность
перегрева
1007.1 1005.7
11 17.03 С 4 н/о н/о +30.0 +24.9 74 +43 +43 опасность
перегрева
1008.6 1007.2
12 17.03 С 5 н/о н/о +30.1 +25.4 76 +44 +44 опасность
перегрева
1009.5 1008.1
14 17.03 С 4 н/о н/о +29.8 +24.7 74 +42 +42 опасность
перегрева
1009.6 1008.2 +34.8
15 17.03 С 4 н/о н/о +29.8 +24.2 72 +42 +42 опасность
перегрева
1009.2 1007.8
17 17.03 СЗ 1 н/о н/о +28.3 +24.1 78 +39 +39 очень
душно
1008.2 1006.8
18 17.03 штиль 0 н/о н/о +28.0 +24.6 82 +40 +40 очень
душно
1008.1 1006.7
20 17.03 Ю 4 н/о н/о +28.9 +25.5 82 +43 +43 опасность
перегрева
1008.6 1007.2
21 17.03 Ю 4 н/о н/о +28.7 +25.3 82 +42 +42 опасность
перегрева
1008.9 1007.5
23 17.03 Ю 4 н/о н/о +30.5 +25.8 76 +45 +45 опасность
перегрева
1009.9 1008.5
00 18.03 Ю 4 н/о н/о +31.0 +24.9 70 +44 +44 опасность
перегрева
1010.0 1008.6
02 18.03 Ю 3 н/о н/о +32.5 +24.8 64 +46 +46 опасность
перегрева
1008.6 1007.2 +27.6
03 18.03 ЮВ 2 н/о н/о +33.4 +22.2 52 +42 +42 опасность
перегрева
1007.7 1006.3
05 18.03 СВ 3 н/о н/о +35.0 +20.5 43 +42 +42 опасность
перегрева
1005.8 1004.4
06 18.03 С 5 н/о н/о +35.1 +22.4 48 +44 +44 опасность
перегрева
1005.3 1003.9
08 18.03 СВ 7 н/о н/о +32.8 +21.6 52 +41 +41 опасность
перегрева
1004.8 1003.4
09 18.03 СВ 7 н/о н/о +31.9 +21.4 54 +40 +40 очень
душно
1005.0 1003.6
11 18.03 СВ 6 н/о н/о +31.3 +22.3 59 +40 +40 очень
душно
1006.8 1005.4
12 18.03 СВ 6 н/о н/о +31.1 +22.7 61 +41 +41 опасность
перегрева
1007.8 1006.4
14 18.03 С 4 н/о н/о +30.1 +23.3 67 +41 +41 опасность
перегрева
1008.0 1006.6 +35.9
15 18.03 СЗ 3 н/о н/о +28.8 +23.5 73 +39 +39 очень
душно
1007.5 1006.1
17 18.03 штиль 0 н/о н/о +28.1 +24.3 80 +39 +39 очень
душно
1006.7 1005.3
18 18.03 З 2 н/о н/о +28.0 +24.6 82 +40 +40 очень
душно
1006.2 1004.8
20 18.03 ЮЗ 3 н/о н/о +28.7 +24.7 79 +41 +41 опасность
перегрева
1006.4 1005.0
21 18.03 З 5 н/о н/о +28.5 +24.5 79 +40 +40 очень
душно
1006.6 1005.2
23 18.03 ЮЗ 4 н/о н/о +30.1 +24.5 72 +42 +42 опасность
перегрева
1008.2 1006.8
00 19.03 ЮЗ 4 н/о н/о +31.7 +25.1 68 +45 +45 опасность
перегрева
1008.3 1006.9
02 19.03 Ю 3 н/о н/о +33.1 +21.6 51 +41 +41 опасность
перегрева
1007.7 1006.3 +27.8
03 19.03 ЮВ 3 н/о н/о +34.2 +20.9 46 +41 +41 опасность
перегрева
1006.7 1005.3
05 19.03 СВ 3 н/о н/о +34.7 +21.4 46 +42 +42 опасность
перегрева
1004.8 1003.4
06 19.03 С 3 н/о н/о +34.4 +23.7 54 +46 +46 опасность
перегрева
1004.1 1002.7

 

Местоположение метеостанции Остров Центр (Северная территория, Австралия): широта -15.75 долгота 136.80 высота над уровнем моря 13 м.

В архиве по умолчанию представлена погода на Острове Центр за последнюю неделю. Архивные данные за месяц целиком и за предыдущие месяцы, начиная с января 2011 года, Вы можете получить, выбрав интересующий диапазон дат из раскрывающегося списка и нажав кнопку "Ввод!".


*Определитесь, кто Вы:
робот инопланетянин человек

Внимание! Время в таблицах - всемирное. Для получения местного времени необходимо прибавить поправку, которая равна 9.5 ч.

Смотрите также архив погоды в соседних городах и на ближайших метеорологических станциях:

Погода в Борролооле (Северная территория, Австралия) (65 км)
Погода в Аэропорту Макартур Ривер Майн (Северная территория, Австралия) (109 км)
Погода в Аэропорту Грут-Айленд (Северная территория, Австралия) (200 км)
Погода на Острове Северо-восточный (Северная территория, Австралия) (234 км)
Погода на Острове Морнингтон (Квинсленд, Австралия) (273 км)
Погода в Булман Уимол (Северная территория, Австралия) (352 км)
Погода в Беркетауне (Квинсленд, Австралия) (366 км)
Погода в Дейли Уотерс (Северная территория, Австралия) (371 км)
Погода в Аэропорту Гоув (Северная территория, Австралия) (386 км)
Погода на Руднике Century Mine (Квинсленд, Австралия) (390 км)

Пояснения к столбцам:

Ветер - указаны скорость ветра в м/с - средняя за 10 мин, порывы в срок и между сроками (в фигурных скобках) и направление, откуда дует ветер: С - северный, СВ - северо-восточный, В - восточный, ЮВ - юго-восточный, Ю - южный, ЮЗ - юго-западный, З - западный, СЗ - северо-западный.
Видимость - горизонтальная дальность видимости в метрах или километрах. При видимости от 1 до 10 км при отсутствии осадков обычно наблюдается дымка, при ухудшении видимости до 1 км и менее - туман. В сухую погоду видимость может ухудшаться дымом, пылью или мглою.
Явления - указаны атмосферные явления, наблюдавшиеся в срок или в последний час перед сроком; фигурными скобками обозначены явления, наблюдавшиеся между сроками (за 1-3 часа до срока); квадратными скобками обозначены град или гололедные отложения с указанием их диаметра в мм.
Облачность - указаны через наклонную черту общая и нижняя облачность в баллах и высота нижней границы облаков в метрах; квадратными скобками обозначены формы облаков: Ci - перистые, Cs - перисто-слоистые, Cc - перисто-кучевые, Ac - высококучевые, As - высокослоистые, Sc - слоисто-кучевые, Ns - слоисто-дождевые, Cu - кучевые, Cb - кучево-дождевые. Подробнее классификацию облаков см. в Атласе облаков (PDF).
T - Температура воздуха - температура, измеренная на высоте 2 м над землей.
Td - Температура точки росы - температура, при понижении до которой содержащийся в воздухе водяной пар достигнет насыщения.
f - Относительная влажность воздуха - влажноcть воздуха, измеренная на высоте 2 м над землей.
Te - Эффективная температура - температура, которую ощущает одетый по сезону человек в тени. Характеристика душности погоды. При расчете учитывается влияние влажности воздуха и скорости ветра на теплоощущения человека.
Tes - Эффективная температура на солнце - температура, которую ощущает человек, с поправкой на солнечный нагрев. Характеристика знойности погоды. Зависит от высоты солнца над горизонтом, облачности и скорости ветра. Ночью, в пасмурную погоду, а также при ветре 12 м/с и более поправка равна нулю.
P - Атмосферное давление - приведенное к уровню моря атмосферное давление.
Po - Атмосферное давление - измеренное на уровне метеостанции атмосферное давление.
Tmin - Минимальная температура - минимум температуры воздуха на высоте 2 м над землей.
Tmax - Максимальная температура - максимум температуры воздуха на высоте 2 м над землей.
R - Количество осадков - Количество выпавших осадков за период времени, мм. При наведении курсора мыши на число - период времени, за который выпало указанное количество осадков.
R24 - Количество осадков - Количество выпавших осадков за 24 часа, мм.
S - Снежный покров - Высота снежного покрова, см. При наведении курсора мыши на число - состояние снежного покрова и степень покрытия местности в баллах.